QPF
0.02 0.02 0.05 0.06 0.03 0.03 0.03 0.04 0.04 0.04 0.03 0.02 0.02 0.02 0.01 0.01 0.02 0.02 0.02 0.02 0.01 0.01 0.02 0.03 0.04 0.02 0.01 0.01 0.01 0.01 0.01 0.01 0.01 0.01 0.01 0.01 0.02 0.02 0.02 0.02 0.02 0.01 0.03
0.02 0.02 0.03 0.04 0.03 0.02 0.02 0.03 0.04 0.04 0.04 0.03 0.03 0.03 0.01 0.01 0.02 0.03 0.02 0.02 0.02 0.02 0.03 0.03 0.03 0.02 0.01 0.01 0.01 0.01 0.00 0.00 0.00 0.00 0.00 0.00 0.01 0.01 0.02 0.02 0.02 0.01 0.02
0.02 0.03 0.04 0.04 0.03 0.02 0.02 0.03 0.04 0.04 0.04 0.03 0.03 0.04 0.04 0.03 0.03 0.03 0.03 0.02 0.02 0.03 0.05 0.03 0.02 0.02 0.02 0.02 0.01 0.01 0.01 0.00 0.00 0.00 0.00 0.00 0.01 0.01 0.01 0.01 0.02 0.02 0.02
0.02 0.03 0.03 0.04 0.04 0.03 0.02 0.03 0.04 0.05 0.05 0.04 0.04 0.04 0.06 0.04 0.03 0.03 0.03 0.02 0.03 0.04 0.05 0.03 0.02 0.02 0.02 0.02 0.01 0.01 0.01 0.00 0.00 0.00 0.00 0.00 0.01 0.02 0.02 0.02 0.03 0.02 0.01
0.02 0.03 0.04 0.04 0.04 0.04 0.04 0.04 0.04 0.05 0.05 0.05 0.04 0.04 0.06 0.05 0.03 0.04 0.04 0.03 0.04 0.04 0.03 0.02 0.02 0.02 0.02 0.02 0.01 0.01 0.01 0.00 0.00 0.00 0.00 0.00 0.01 0.02 0.02 0.02 0.03 0.02 0.02
0.02 0.02 0.03 0.05 0.05 0.05 0.05 0.04 0.05 0.05 0.06 0.05 0.04 0.04 0.06 0.06 0.04 0.04 0.03 0.03 0.03 0.03 0.02 0.02 0.02 0.02 0.02 0.01 0.01 0.01 0.01 0.01 0.00 0.00 0.00 0.00 0.01 0.02 0.02 0.02 0.02 0.02 0.02
0.02 0.02 0.02 0.04 0.04 0.05 0.06 0.06 0.06 0.07 0.07 0.05 0.04 0.04 0.06 0.07 0.06 0.04 0.04 0.03 0.03 0.03 0.02 0.02 0.02 0.02 0.02 0.01 0.01 0.01 0.01 0.01 0.00 0.00 0.00 0.00 0.01 0.02 0.02 0.01 0.01 0.02 0.01
0.01 0.02 0.02 0.03 0.03 0.04 0.06 0.07 0.08 0.07 0.06 0.05 0.04 0.05 0.06 0.06 0.05 0.05 0.05 0.03 0.03 0.03 0.02 0.03 0.03 0.02 0.01 0.01 0.01 0.00 0.00 0.00 0.00 0.00 0.00 0.00 0.02 0.02 0.01 0.01 0.01 0.01 0.01
0.01 0.02 0.02 0.01 0.02 0.05 0.07 0.06 0.06 0.09 0.07 0.05 0.04 0.06 0.06 0.06 0.05 0.05 0.05 0.04 0.03 0.03 0.02 0.03 0.03 0.03 0.02 0.02 0.02 0.01 0.00 0.00 0.00 0.00 0.00 0.01 0.02 0.02 0.01 0.01 0.01 0.01 0.01
0.01 0.02 0.02 0.02 0.01 0.03 0.06 0.09 0.08 0.10 0.11 0.06 0.04 0.05 0.05 0.04 0.05 0.05 0.05 0.05 0.03 0.03 0.03 0.03 0.02 0.03 0.03 0.03 0.03 0.02 0.01 0.00 0.00 0.00 0.00 0.01 0.02 0.02 0.01 0.01 0.01 0.01 0.01
0.02 0.02 0.02 0.02 0.02 0.04 0.06 0.07 0.09 0.11 0.15 0.10 0.06 0.05 0.04 0.04 0.05 0.05 0.05 0.06 0.05 0.03 0.03 0.03 0.02 0.05 0.05 0.04 0.04 0.02 0.01 0.01 0.00 0.00 0.01 0.02 0.03 0.02 0.01 0.01 0.01 0.01 0.01
0.01 0.02 0.02 0.03 0.03 0.04 0.06 0.08 0.08 0.13 0.20 0.15 0.07 0.05 0.04 0.04 0.04 0.06 0.06 0.06 0.05 0.04 0.03 0.03 0.02 0.03 0.05 0.05 0.03 0.02 0.01 0.01 0.01 0.00 0.01 0.02 0.04 0.03 0.02 0.01 0.01 0.01 0.01
0.01 0.01 0.02 0.02 0.03 0.04 0.05 0.06 0.09 0.11 0.18 0.20 0.12 0.06 0.04 0.04 0.05 0.05 0.05 0.06 0.05 0.04 0.03 0.03 0.03 0.02 0.02 0.03 0.03 0.02 0.01 0.01 0.01 0.01 0.01 0.02 0.03 0.04 0.02 0.02 0.02 0.02 0.01
0.02 0.02 0.01 0.02 0.03 0.04 0.04 0.05 0.08 0.10 0.15 0.18 0.12 0.07 0.04 0.04 0.04 0.04 0.04 0.05 0.05 0.04 0.04 0.04 0.03 0.03 0.03 0.04 0.04 0.03 0.02 0.02 0.01 0.01 0.01 0.01 0.02 0.02 0.02 0.03 0.03 0.02 0.03
0.02 0.03 0.03 0.03 0.04 0.04 0.05 0.05 0.07 0.10 0.14 0.16 0.12 0.08 0.05 0.05 0.05 0.05 0.05 0.05 0.05 0.04 0.05 0.05 0.04 0.03 0.03 0.04 0.04 0.03 0.02 0.02 0.02 0.01 0.01 0.01 0.01 0.02 0.03 0.03 0.03 0.03 0.02
0.01 0.03 0.04 0.04 0.05 0.05 0.05 0.06 0.06 0.11 0.14 0.18 0.13 0.08 0.06 0.05 0.07 0.08 0.06 0.06 0.06 0.05 0.05 0.06 0.06 0.05 0.04 0.03 0.03 0.03 0.03 0.03 0.02 0.02 0.01 0.01 0.01 0.01 0.02 0.03 0.03 0.03 0.03
0.01 0.02 0.03 0.04 0.05 0.06 0.07 0.07 0.06 0.09 0.17 0.19 0.15 0.08 0.06 0.05 0.05 0.08 0.07 0.07 0.05 0.04 0.04 0.06 0.06 0.06 0.04 0.03 0.02 0.02 0.02 0.02 0.02 0.01 0.01 0.01 0.01 0.01 0.02 0.02 0.02 0.02 0.02
0.01 0.02 0.03 0.04 0.05 0.05 0.06 0.07 0.07 0.09 0.16 0.21 0.18 0.11 0.07 0.07 0.06 0.07 0.07 0.07 0.06 0.05 0.04 0.06 0.08 0.08 0.06 0.03 0.02 0.02 0.01 0.01 0.01 0.01 0.01 0.01 0.01 0.01 0.02 0.02 0.01 0.01 0.01
0.02 0.02 0.02 0.04 0.05 0.06 0.04 0.05 0.06 0.07 0.12 0.19 0.19 0.14 0.10 0.09 0.07 0.06 0.06 0.06 0.06 0.05 0.05 0.06 0.06 0.07 0.08 0.06 0.04 0.03 0.02 0.01 0.02 0.02 0.02 0.02 0.02 0.02 0.02 0.02 0.02 0.01 0.01
0.04 0.03 0.03 0.04 0.05 0.06 0.06 0.06 0.08 0.09 0.12 0.16 0.17 0.16 0.11 0.09 0.07 0.06 0.06 0.06 0.06 0.06 0.05 0.05 0.05 0.04 0.05 0.09 0.11 0.07 0.04 0.03 0.02 0.02 0.02 0.02 0.02 0.02 0.03 0.02 0.01 0.01 0.01
0.04 0.05 0.05 0.05 0.05 0.06 0.06 0.06 0.07 0.10 0.12 0.15 0.16 0.17 0.13 0.09 0.07 0.07 0.07 0.06 0.06 0.06 0.05 0.03 0.03 0.03 0.04 0.05 0.10 0.14 0.11 0.06 0.03 0.02 0.02 0.02 0.02 0.02 0.02 0.02 0.01 0.01 0.01
0.04 0.05 0.06 0.06 0.07 0.07 0.07 0.06 0.06 0.09 0.11 0.15 0.16 0.16 0.14 0.10 0.08 0.08 0.08 0.08 0.07 0.05 0.04 0.04 0.04 0.04 0.05 0.05 0.06 0.08 0.13 0.13 0.09 0.04 0.03 0.02 0.02 0.01 0.01 0.01 0.01 0.01 0.01
0.03 0.05 0.06 0.08 0.09 0.09 0.09 0.10 0.09 0.09 0.10 0.14 0.16 0.15 0.14 0.11 0.08 0.07 0.07 0.08 0.08 0.07 0.05 0.03 0.04 0.05 0.05 0.05 0.06 0.07 0.07 0.09 0.10 0.08 0.05 0.03 0.02 0.02 0.01 0.01 0.02 0.02 0.01
0.02 0.03 0.06 0.08 0.09 0.11 0.11 0.11 0.10 0.08 0.07 0.10 0.13 0.13 0.12 0.12 0.10 0.06 0.06 0.07 0.08 0.08 0.06 0.04 0.03 0.03 0.03 0.04 0.05 0.06 0.07 0.07 0.07 0.08 0.07 0.06 0.04 0.03 0.03 0.02 0.02 0.02 0.01
0.03 0.02 0.04 0.06 0.08 0.11 0.14 0.14 0.12 0.08 0.07 0.07 0.10 0.11 0.11 0.10 0.10 0.07 0.06 0.07 0.07 0.08 0.06 0.04 0.03 0.03 0.02 0.03 0.03 0.04 0.05 0.06 0.06 0.05 0.06 0.06 0.06 0.05 0.05 0.04 0.03 0.03 0.03
0.03 0.03 0.02 0.04 0.07 0.10 0.16 0.19 0.15 0.11 0.08 0.08 0.08 0.10 0.11 0.09 0.09 0.08 0.05 0.06 0.08 0.07 0.07 0.05 0.03 0.03 0.03 0.02 0.03 0.03 0.04 0.04 0.05 0.05 0.04 0.05 0.05 0.05 0.05 0.05 0.04 0.03 0.04
MSLP
1027.85 1027.07 1025.94 1024.64 1023.34 1022.16 1021.19 1020.44 1019.87 1019.44 1019.08 1018.76 1018.48 1018.24 1018.08 1018.03 1018.08 1018.23 1018.41 1018.59 1018.72 1018.77 1018.75 1018.67 1018.58 1018.51 1018.48 1018.49 1018.52 1018.55 1018.53 1018.44 1018.28 1018.06 1017.82 1017.59 1017.40 1017.27 1017.19 1017.16 1017.15 1017.12 1017.06
1028.74 1027.84 1026.65 1025.32 1024.02 1022.86 1021.89 1021.12 1020.52 1020.02 1019.58 1019.18 1018.82 1018.53 1018.35 1018.29 1018.36 1018.52 1018.73 1018.92 1019.06 1019.11 1019.08 1019.00 1018.91 1018.83 1018.80 1018.82 1018.85 1018.87 1018.85 1018.76 1018.60 1018.39 1018.16 1017.94 1017.76 1017.63 1017.56 1017.54 1017.53 1017.52 1017.47
1029.53 1028.54 1027.31 1025.99 1024.72 1023.60 1022.66 1021.89 1021.24 1020.67 1020.14 1019.64 1019.19 1018.83 1018.60 1018.52 1018.58 1018.75 1018.97 1019.17 1019.31 1019.37 1019.34 1019.26 1019.17 1019.10 1019.07 1019.08 1019.11 1019.14 1019.13 1019.06 1018.92 1018.73 1018.52 1018.31 1018.14 1018.02 1017.95 1017.93 1017.92 1017.92 1017.88
1030.16 1029.12 1027.89 1026.61 1025.41 1024.35 1023.45 1022.68 1022.00 1021.35 1020.72 1020.10 1019.55 1019.10 1018.81 1018.69 1018.72 1018.88 1019.10 1019.30 1019.46 1019.52 1019.51 1019.45 1019.37 1019.31 1019.29 1019.31 1019.35 1019.39 1019.40 1019.35 1019.24 1019.08 1018.90 1018.72 1018.56 1018.44 1018.37 1018.33 1018.31 1018.30 1018.28
1030.59 1029.53 1028.34 1027.15 1026.05 1025.08 1024.24 1023.49 1022.76 1022.04 1021.30 1020.56 1019.89 1019.34 1018.96 1018.78 1018.77 1018.91 1019.12 1019.33 1019.50 1019.59 1019.61 1019.58 1019.53 1019.50 1019.50 1019.54 1019.60 1019.66 1019.68 1019.66 1019.58 1019.46 1019.31 1019.15 1019.01 1018.89 1018.80 1018.74 1018.70 1018.68 1018.66
1030.79 1029.76 1028.65 1027.58 1026.61 1025.76 1024.99 1024.26 1023.50 1022.70 1021.86 1021.01 1020.22 1019.57 1019.09 1018.83 1018.77 1018.87 1019.06 1019.27 1019.46 1019.59 1019.66 1019.69 1019.69 1019.71 1019.74 1019.81 1019.88 1019.95 1019.99 1019.99 1019.95 1019.86 1019.74 1019.61 1019.48 1019.35 1019.24 1019.15 1019.09 1019.05 1019.02
1030.79 1029.82 1028.84 1027.92 1027.10 1026.37 1025.68 1024.98 1024.21 1023.34 1022.41 1021.46 1020.57 1019.81 1019.25 1018.91 1018.78 1018.82 1018.98 1019.19 1019.40 1019.57 1019.70 1019.79 1019.87 1019.94 1020.02 1020.11 1020.19 1020.27 1020.32 1020.34 1020.32 1020.26 1020.18 1020.07 1019.95 1019.82 1019.70 1019.58 1019.49 1019.42 1019.37
1030.67 1029.79 1028.94 1028.18 1027.52 1026.92 1026.31 1025.64 1024.86 1023.96 1022.97 1021.95 1020.97 1020.13 1019.49 1019.06 1018.85 1018.82 1018.94 1019.12 1019.34 1019.55 1019.74 1019.90 1020.06 1020.19 1020.32 1020.43 1020.53 1020.60 1020.65 1020.67 1020.66 1020.63 1020.58 1020.51 1020.41 1020.29 1020.16 1020.02 1019.90 1019.80 1019.74
1030.50 1029.73 1029.03 1028.43 1027.90 1027.41 1026.88 1026.25 1025.48 1024.56 1023.54 1022.48 1021.46 1020.56 1019.84 1019.33 1019.03 1018.92 1018.96 1019.10 1019.29 1019.52 1019.77 1020.00 1020.23 1020.43 1020.60 1020.74 1020.84 1020.90 1020.93 1020.95 1020.95 1020.94 1020.93 1020.89 1020.83 1020.74 1020.61 1020.47 1020.33 1020.21 1020.14
1030.38 1029.72 1029.15 1028.68 1028.28 1027.87 1027.40 1026.80 1026.04 1025.13 1024.12 1023.05 1022.02 1021.10 1020.32 1019.73 1019.33 1019.11 1019.04 1019.10 1019.26 1019.49 1019.76 1020.06 1020.35 1020.62 1020.84 1021.00 1021.10 1021.14 1021.16 1021.16 1021.16 1021.17 1021.19 1021.21 1021.19 1021.14 1021.04 1020.91 1020.77 1020.64 1020.55
1030.36 1029.80 1029.34 1028.98 1028.65 1028.30 1027.85 1027.27 1026.53 1025.65 1024.66 1023.63 1022.62 1021.69 1020.88 1020.22 1019.71 1019.36 1019.17 1019.12 1019.21 1019.41 1019.70 1020.04 1020.39 1020.72 1020.99 1021.18 1021.28 1021.31 1021.30 1021.29 1021.29 1021.32 1021.38 1021.44 1021.49 1021.49 1021.43 1021.33 1021.19 1021.06 1020.97
1030.45 1029.98 1029.61 1029.31 1029.01 1028.67 1028.22 1027.63 1026.90 1026.05 1025.12 1024.15 1023.19 1022.28 1021.45 1020.72 1020.10 1019.62 1019.29 1019.12 1019.11 1019.26 1019.54 1019.92 1020.34 1020.73 1021.05 1021.28 1021.39 1021.42 1021.40 1021.37 1021.37 1021.41 1021.50 1021.61 1021.72 1021.78 1021.77 1021.71 1021.59 1021.47 1021.37
1030.63 1030.24 1029.92 1029.63 1029.33 1028.95 1028.46 1027.86 1027.13 1026.32 1025.44 1024.54 1023.65 1022.78 1021.94 1021.16 1020.44 1019.83 1019.35 1019.05 1018.94 1019.03 1019.31 1019.71 1020.19 1020.65 1021.04 1021.32 1021.46 1021.50 1021.47 1021.43 1021.43 1021.48 1021.59 1021.75 1021.90 1022.01 1022.06 1022.03 1021.95 1021.83 1021.74
1030.83 1030.50 1030.20 1029.90 1029.54 1029.10 1028.56 1027.91 1027.18 1026.40 1025.59 1024.77 1023.95 1023.13 1022.30 1021.48 1020.68 1019.94 1019.33 1018.90 1018.70 1018.73 1019.00 1019.43 1019.97 1020.51 1020.98 1021.33 1021.52 1021.59 1021.58 1021.54 1021.52 1021.58 1021.70 1021.88 1022.06 1022.21 1022.30 1022.31 1022.25 1022.15 1022.06
1031.00 1030.69 1030.39 1030.05 1029.62 1029.11 1028.49 1027.79 1027.05 1026.30 1025.55 1024.81 1024.06 1023.30 1022.49 1021.64 1020.77 1019.94 1019.22 1018.69 1018.40 1018.39 1018.65 1019.12 1019.72 1020.35 1020.91 1021.34 1021.60 1021.72 1021.73 1021.70 1021.69 1021.74 1021.86 1022.04 1022.23 1022.41 1022.52 1022.55 1022.51 1022.43 1022.35
1031.05 1030.75 1030.42 1030.03 1029.54 1028.94 1028.25 1027.52 1026.76 1026.03 1025.34 1024.66 1023.99 1023.28 1022.50 1021.64 1020.73 1019.83 1019.03 1018.42 1018.08 1018.03 1018.29 1018.80 1019.46 1020.18 1020.83 1021.35 1021.70 1021.89 1021.95 1021.94 1021.94 1021.99 1022.10 1022.26 1022.45 1022.62 1022.73 1022.78 1022.75 1022.69 1022.62
1030.95 1030.64 1030.28 1029.83 1029.27 1028.61 1027.88 1027.11 1026.36 1025.65 1025.00 1024.39 1023.77 1023.10 1022.35 1021.49 1020.57 1019.63 1018.78 1018.12 1017.74 1017.68 1017.94 1018.47 1019.19 1019.98 1020.73 1021.35 1021.80 1022.07 1022.19 1022.24 1022.26 1022.30 1022.40 1022.55 1022.72 1022.87 1022.98 1023.03 1023.02 1022.97 1022.92
1030.71 1030.36 1029.96 1029.46 1028.86 1028.16 1027.40 1026.62 1025.88 1025.20 1024.59 1024.02 1023.44 1022.81 1022.08 1021.23 1020.30 1019.35 1018.48 1017.80 1017.39 1017.31 1017.57 1018.12 1018.88 1019.73 1020.56 1021.28 1021.83 1022.20 1022.41 1022.52 1022.58 1022.65 1022.75 1022.88 1023.03 1023.17 1023.27 1023.32 1023.31 1023.28 1023.25
1030.34 1029.93 1029.48 1028.94 1028.31 1027.60 1026.84 1026.09 1025.37 1024.72 1024.14 1023.59 1023.04 1022.42 1021.70 1020.87 1019.94 1019.00 1018.13 1017.44 1017.02 1016.92 1017.17 1017.72 1018.49 1019.38 1020.27 1021.07 1021.72 1022.20 1022.52 1022.72 1022.86 1022.97 1023.09 1023.23 1023.37 1023.50 1023.59 1023.64 1023.65 1023.64 1023.63
1029.87 1029.39 1028.88 1028.31 1027.67 1026.97 1026.24 1025.52 1024.84 1024.22 1023.65 1023.12 1022.56 1021.95 1021.23 1020.40 1019.49 1018.56 1017.70 1017.01 1016.58 1016.46 1016.69 1017.21 1017.97 1018.87 1019.81 1020.68 1021.42 1022.02 1022.46 1022.78 1023.02 1023.20 1023.37 1023.54 1023.69 1023.82 1023.92 1023.98 1024.01 1024.02 1024.04
1029.35 1028.78 1028.20 1027.60 1026.95 1026.28 1025.59 1024.91 1024.26 1023.67 1023.11 1022.57 1022.00 1021.37 1020.64 1019.82 1018.92 1018.01 1017.16 1016.48 1016.04 1015.90 1016.09 1016.57 1017.30 1018.18 1019.13 1020.06 1020.90 1021.62 1022.20 1022.65 1023.01 1023.30 1023.54 1023.75 1023.94 1024.10 1024.22 1024.31 1024.37 1024.40 1024.44
1028.79 1028.12 1027.47 1026.82 1026.18 1025.52 1024.87 1024.24 1023.62 1023.04 1022.48 1021.92 1021.33 1020.67 1019.93 1019.11 1018.23 1017.34 1016.52 1015.84 1015.40 1015.22 1015.36 1015.78 1016.45 1017.31 1018.27 1019.24 1020.16 1021.00 1021.71 1022.32 1022.81 1023.22 1023.56 1023.85 1024.09 1024.29 1024.45 1024.57 1024.66 1024.73 1024.79
1028.22 1027.43 1026.69 1026.00 1025.33 1024.69 1024.07 1023.46 1022.88 1022.30 1021.73 1021.15 1020.52 1019.84 1019.09 1018.27 1017.41 1016.55 1015.76 1015.10 1014.64 1014.44 1014.52 1014.88 1015.49 1016.30 1017.25 1018.25 1019.25 1020.20 1021.05 1021.80 1022.44 1022.98 1023.42 1023.80 1024.10 1024.35 1024.56 1024.72 1024.85 1024.95 1025.04
1027.62 1026.72 1025.88 1025.12 1024.42 1023.77 1023.16 1022.57 1022.00 1021.43 1020.84 1020.23 1019.59 1018.89 1018.14 1017.33 1016.50 1015.68 1014.92 1014.28 1013.82 1013.58 1013.60 1013.90 1014.45 1015.22 1016.15 1017.18 1018.25 1019.29 1020.27 1021.15 1021.93 1022.58 1023.13 1023.59 1023.96 1024.27 1024.53 1024.74 1024.91 1025.05 1025.17
1026.99 1025.97 1025.03 1024.19 1023.44 1022.76 1022.14 1021.56 1020.98 1020.41 1019.82 1019.21 1018.55 1017.86 1017.12 1016.35 1015.56 1014.78 1014.05 1013.43 1012.97 1012.70 1012.68 1012.91 1013.40 1014.13 1015.05 1016.10 1017.22 1018.35 1019.43 1020.43 1021.31 1022.07 1022.71 1023.24 1023.67 1024.04 1024.35 1024.61 1024.83 1025.02 1025.18
1026.32 1025.19 1024.15 1023.22 1022.40 1021.67 1021.03 1020.43 1019.86 1019.29 1018.71 1018.10 1017.46 1016.79 1016.09 1015.37 1014.63 1013.90 1013.22 1012.61 1012.14 1011.85 1011.78 1011.96 1012.40 1013.09 1013.99 1015.06 1016.23 1017.42 1018.59 1019.68 1020.65 1021.48 1022.19 1022.77 1023.26 1023.67 1024.03 1024.35 1024.63 1024.87 1025.08
Thickness
5686 5689 5692 5695 5697 5699 5701 5703 5704 5704 5706 5707 5707 5708 5708 5709 5709 5709 5709 5709 5709 5709 5709 5709 5709 5708 5708 5708 5707 5707 5707 5706 5706 5706 5706 5705 5705 5704 5703 5702 5702 5702 5701
5684 5686 5688 5691 5693 5695 5697 5698 5700 5701 5702 5703 5703 5704 5704 5705 5705 5705 5705 5706 5706 5706 5706 5705 5705 5705 5705 5704 5704 5703 5702 5702 5701 5701 5701 5701 5701 5700 5700 5699 5699 5698 5697
5680 5682 5684 5687 5689 5691 5693 5694 5695 5696 5697 5698 5699 5700 5701 5701 5701 5701 5702 5702 5702 5702 5702 5702 5702 5701 5701 5700 5700 5699 5699 5698 5697 5697 5697 5697 5697 5697 5696 5696 5695 5694 5694
5676 5678 5680 5682 5685 5686 5688 5690 5691 5692 5693 5694 5695 5696 5696 5697 5697 5697 5698 5698 5698 5698 5698 5698 5698 5697 5697 5697 5696 5695 5695 5694 5693 5693 5693 5693 5693 5693 5692 5692 5691 5691 5690
5669 5672 5674 5677 5680 5682 5683 5685 5686 5687 5689 5689 5691 5691 5692 5692 5693 5693 5693 5693 5693 5693 5694 5694 5693 5693 5693 5692 5692 5691 5691 5690 5689 5689 5689 5689 5689 5689 5688 5688 5687 5686 5686
5662 5665 5667 5671 5674 5676 5678 5680 5681 5682 5683 5684 5685 5686 5687 5687 5688 5688 5688 5688 5688 5689 5689 5689 5689 5689 5688 5688 5687 5687 5687 5686 5685 5685 5685 5685 5685 5685 5684 5683 5683 5682 5682
5655 5657 5660 5663 5667 5669 5671 5673 5675 5676 5677 5679 5680 5681 5682 5682 5682 5682 5682 5683 5683 5684 5684 5684 5684 5684 5684 5684 5683 5683 5682 5682 5681 5681 5681 5681 5681 5681 5680 5679 5679 5678 5678
5646 5649 5652 5655 5658 5661 5664 5665 5668 5669 5671 5672 5674 5675 5676 5676 5677 5677 5677 5678 5678 5678 5679 5679 5679 5679 5679 5679 5678 5678 5678 5677 5677 5677 5677 5676 5676 5676 5676 5675 5674 5674 5673
5637 5640 5644 5647 5649 5652 5655 5658 5660 5662 5664 5665 5667 5668 5669 5670 5671 5671 5671 5672 5672 5673 5673 5673 5674 5674 5674 5674 5673 5673 5673 5673 5672 5672 5672 5672 5672 5672 5671 5671 5670 5670 5669
5627 5630 5634 5637 5641 5644 5646 5649 5651 5654 5655 5658 5659 5661 5662 5663 5664 5664 5665 5666 5666 5667 5667 5668 5668 5668 5668 5668 5668 5668 5668 5668 5668 5668 5668 5667 5667 5667 5667 5666 5666 5665 5664
5616 5620 5624 5628 5632 5635 5637 5640 5642 5645 5647 5649 5651 5653 5654 5656 5657 5657 5658 5659 5659 5660 5660 5661 5661 5661 5662 5662 5662 5662 5662 5662 5662 5663 5663 5663 5663 5662 5662 5661 5661 5660 5659
5604 5608 5613 5617 5621 5625 5628 5631 5633 5635 5638 5640 5642 5644 5646 5647 5648 5649 5650 5652 5652 5652 5653 5654 5655 5655 5655 5655 5655 5656 5656 5656 5657 5657 5657 5658 5658 5658 5657 5657 5656 5655 5654
5593 5598 5602 5606 5611 5615 5618 5621 5624 5626 5628 5630 5633 5634 5636 5638 5639 5641 5642 5643 5644 5645 5646 5647 5647 5648 5648 5648 5648 5649 5650 5650 5650 5651 5651 5652 5653 5652 5652 5652 5651 5650 5649
5582 5587 5592 5596 5600 5604 5608 5611 5613 5615 5618 5620 5622 5625 5627 5628 5629 5631 5632 5634 5635 5637 5638 5639 5640 5640 5641 5641 5641 5642 5643 5644 5644 5645 5645 5646 5646 5646 5647 5646 5646 5645 5644
5571 5575 5580 5586 5590 5593 5597 5600 5602 5605 5607 5610 5612 5615 5617 5619 5620 5621 5623 5625 5627 5629 5630 5631 5632 5633 5633 5634 5634 5634 5635 5636 5637 5638 5639 5639 5640 5640 5641 5641 5640 5640 5639
5560 5563 5569 5575 5579 5583 5586 5588 5591 5594 5598 5600 5603 5605 5606 5608 5610 5612 5614 5616 5618 5620 5621 5623 5624 5625 5625 5626 5626 5627 5628 5629 5630 5631 5632 5632 5633 5634 5634 5635 5634 5634 5634
5548 5552 5557 5563 5568 5572 5575 5578 5581 5584 5587 5590 5593 5595 5597 5598 5600 5603 5605 5607 5609 5611 5612 5613 5615 5616 5617 5617 5618 5619 5621 5622 5622 5624 5624 5625 5626 5627 5627 5628 5628 5628 5628
5537 5541 5545 5551 5556 5561 5565 5568 5571 5573 5577 5580 5583 5585 5587 5589 5591 5593 5595 5597 5599 5602 5604 5605 5606 5607 5608 5608 5609 5610 5612 5614 5615 5616 5617 5618 5619 5619 5620 5620 5621 5621 5621
5526 5530 5534 5539 5545 5550 5554 5558 5561 5564 5567 5570 5573 5576 5578 5580 5582 5584 5586 5587 5590 5592 5594 5596 5597 5598 5599 5600 5601 5602 5603 5605 5606 5607 5608 5609 5610 5611 5612 5612 5613 5613 5614
5514 5519 5523 5528 5533 5539 5543 5547 5551 5554 5557 5560 5564 5565 5568 5570 5572 5574 5576 5577 5580 5583 5585 5587 5587 5588 5590 5591 5593 5593 5594 5596 5597 5599 5600 5601 5602 5603 5604 5604 5604 5605 5605
5503 5507 5512 5517 5522 5528 5532 5536 5540 5543 5547 5551 5554 5556 5559 5561 5564 5565 5567 5568 5570 5573 5575 5577 5578 5579 5580 5582 5583 5583 5583 5586 5588 5589 5590 5591 5592 5593 5594 5596 5596 5596 5597
5491 5496 5502 5507 5512 5517 5522 5526 5530 5534 5538 5541 5544 5547 5550 5552 5554 5557 5558 5560 5561 5563 5565 5567 5568 5569 5570 5573 5573 5573 5572 5573 5576 5579 5580 5581 5582 5583 5585 5586 5587 5588 5588
5479 5484 5491 5496 5501 5506 5511 5515 5519 5522 5526 5530 5533 5537 5539 5542 5545 5547 5549 5550 5552 5554 5555 5557 5559 5560 5561 5562 5565 5565 5563 5564 5564 5567 5569 5571 5572 5573 5575 5576 5577 5578 5580
5468 5473 5479 5485 5490 5495 5499 5504 5507 5512 5516 5519 5523 5526 5528 5530 5533 5537 5539 5541 5542 5544 5545 5548 5550 5551 5552 5552 5554 5556 5557 5557 5556 5556 5558 5560 5561 5563 5564 5565 5567 5568 5570
5457 5462 5468 5473 5479 5483 5488 5493 5497 5501 5505 5508 5512 5515 5517 5520 5523 5526 5529 5531 5532 5534 5536 5538 5539 5541 5542 5543 5543 5544 5546 5547 5549 5549 5548 5549 5551 5553 5554 5556 5557 5559 5560
5448 5452 5457 5462 5467 5472 5476 5481 5485 5489 5493 5496 5500 5503 5507 5510 5512 5515 5519 5522 5523 5524 5526 5528 5529 5530 5531 5533 5533 5535 5536 5538 5539 5539 5540 5540 5541 5542 5545 5547 5548 5549 5550